Home > Weather > Villavicencio > Past weeks

Flag for Colombia Past Weather in Villavicencio, Colombia — Yesterday and Last 2 Weeks

Now
54 °F

Scattered showers. Passing clouds.


Feels Like: 52 °F
Forecast: 65 / 80 °F
Wind: 6 mph from Northeast

Location: Bogota / Eldorado

Current Time: Jun 28, 2016 at 2:52:01 AM

Latest Report: Jun 28, 2016 at 2:00 AM


Visibility: N/A

Pressure: 30.37 "Hg

Humidity: 77%

Dew Point: 46 °F

Location of VillavicencioLocation

Past Weather in Villavicencio — Graph

°F

Villavicencio Temperature Yesterday

Maximum temperature yesterday: 63 °F (at 11:00 AM)
Minimum temperature yesterday: 48 °F (at 12:00 AM)
Average temperature yesterday: 57 °F

High & Low Weather Summary for the Past Weeks

 TemperatureHumidityPressure
High68 °F (Jun 23, 2:00 PM)94% (Jun 13, 5:00 AM)30.49 "Hg (Jun 13, 5:00 AM)
Low46 °F (Jun 22, 6:00 AM)43% (Jun 17, 3:00 PM)30.26 "Hg (Jun 25, 3:00 PM)
Average57 °F72%30.37 "Hg
* Reported Jun 13 1:00 AM — Jun 28 1:00 AM, Villavicencio, Weather by CustomWeather, © 2016

Note: Actual official high and low records may vary slightly from our data, if they occured in-between our weather recording intervals... More about our weather records

Advertising

Villavicencio Weather History for the Previous 24 Hours

Scroll right to see more
 ConditionsComfort  
Time TempWeatherWind HumidityBarometerVisibility
1:00 AM
Tue, Jun 28
54 °FPassing clouds.2 mph77%30.37 "HgN/A
12:00 AM55 °FPassing clouds.6 mph67%30.40 "HgN/A
11:00 PM
Mon, Jun 27
55 °FPassing clouds.6 mph67%30.41 "HgN/A
10:00 PM55 °FPassing clouds.5 mph67%30.40 "HgN/A
9:00 PM57 °FPassing clouds.9 mph63%30.39 "HgN/A
8:00 PM59 °FPassing clouds.6 mph63%30.36 "HgN/A
7:00 PM59 °FPassing clouds.7 mph59%30.34 "HgN/A
6:00 PM61 °FScattered clouds.12 mph55%30.31 "HgN/A
5:00 PM63 °FScattered clouds.12 mph52%30.30 "HgN/A
4:00 PM63 °FScattered clouds.14 mph52%30.29 "HgN/A
3:00 PM63 °FMild.14 mph56%30.30 "HgN/A
2:00 PM63 °FScattered showers. Scattered clouds.12 mph59%30.32 "HgN/A
1:00 PM63 °FScattered showers. Partly sunny.14 mph56%30.35 "HgN/A
12:00 PM63 °FScattered showers. Partly sunny.13 mph52%30.37 "HgN/A
11:00 AM63 °FPartly sunny.13 mph56%30.38 "HgN/A
10:00 AM61 °FPartly sunny.13 mph55%30.38 "HgN/A
9:00 AM59 °FPartly sunny.10 mph59%30.38 "HgN/A
8:00 AM57 °FPartly sunny.9 mph63%30.37 "HgN/A
7:00 AM55 °FScattered showers. Partly sunny.8 mph72%30.36 "HgN/A
6:00 AM52 °FPartly sunny.9 mph88%30.36 "HgN/A
5:00 AM50 °FPassing clouds.6 mph88%30.36 "HgN/A
4:00 AM48 °FPassing clouds.2 mph94%30.36 "HgN/A
3:00 AM50 °FCool.2 mph88%30.37 "HgN/A
2:00 AM50 °FCool.2 mph88%30.37 "HgN/A
Weather by CustomWeather, © 2016

See weather overviewHow to use our weather pages